Flag for U.S.A. Weather past 2 weeks in Pontiac, Michigan, U.S.A.

Now
24 °F

Light snow. Ice fog.


Feels Like: 16 °F
Forecast: 14 / 29 °F
Wind: 7 mph from Northeast

Location: Oakland County International Airport

Current Time: Feb 1, 2015 at 5:41:46 AM

Latest Report: Feb 1, 2015 at 5:00 AM


Visibility: 2 mi

Pressure: 30.15 "Hg

Humidity: 84%

Dew point: 20 °F

Location of PontiacLocation

Historic Weather in Pontiac — Graph

°F

Pontiac temperature yesterday

Maximum temperature yesterday: 32 °F (at 3:53 PM)
Minimum temperature yesterday: 8 °F (at 3:53 AM)
Average temperature yesterday: 23 °F

Past Weeks' High & Low Weather Summary

 TemperatureHumidityPressure
High41 °F (Jan 17, 2:53 PM)97% (Jan 18, 9:53 AM)30.46 "Hg (Jan 18, 9:53 AM)
Low5 °F (Jan 28, 4:53 AM)34% (Jan 28, 1:53 PM)29.54 "Hg (Jan 24, 12:53 PM)
Average24 °F76%30.05 "Hg
* Reported Jan 17 4:53 AM — Feb 1 4:00 AM, Pontiac, Weather by CustomWeather, © 2014

Note: Actual official high and low records may vary slightly from our data, if they occured in-between our weather recording intervals... More about our weather records

Advertising

Pontiac weather history for previous 24 hours

 ConditionsComfort  
Time TempWeatherWind HumidityBarometerVisibility
4:00 AM
Feb 1
24 °FLight snow. Ice fog.10 mph84%30.15 "Hg3 mi
2:53 AM26 °FOvercast.9 mph74%30.20 "Hg10 mi
1:53 AM27 °FOvercast.9 mph85%30.19 "Hg7 mi
12:53 AM29 °FIce fog.8 mph85%30.18 "Hg6 mi
11:53 PM
Jan 31
30 °FOvercast.5 mph82%30.18 "Hg10 mi
10:53 PM30 °FOvercast.5 mph72%30.18 "Hg10 mi
9:53 PM31 °FOvercast.3 mph64%30.19 "Hg10 mi
8:53 PM31 °FOvercast.No wind67%30.19 "Hg10 mi
7:53 PM31 °FOvercast.No wind64%30.20 "Hg10 mi
6:53 PM32 °FOvercast.No wind59%30.19 "Hg10 mi
5:53 PM32 °FOvercast.5 mph59%30.19 "Hg10 mi
4:53 PM32 °FMostly cloudy.6 mph56%30.18 "Hg10 mi
3:53 PM32 °FOvercast.6 mph56%30.18 "Hg10 mi
2:53 PM31 °FOvercast.6 mph59%30.19 "Hg10 mi
1:53 PM31 °FPartly sunny.7 mph61%30.19 "Hg10 mi
12:53 PM29 °FBroken clouds.8 mph66%30.22 "Hg10 mi
11:53 AM27 °FBroken clouds.8 mph69%30.24 "Hg10 mi
10:53 AM23 °FScattered clouds.6 mph72%30.27 "Hg10 mi
9:53 AM19 °FPartly sunny.5 mph77%30.28 "Hg10 mi
8:53 AM17 °FMostly cloudy.6 mph76%30.29 "Hg10 mi
7:53 AM15 °FMore clouds than sun.3 mph77%30.31 "Hg10 mi
6:53 AM15 °FOvercast.5 mph77%30.30 "Hg10 mi
5:53 AM14 °FOvercast.5 mph73%30.32 "Hg10 mi
Weather by CustomWeather, © 2014

See weather overviewHow to use our weather pages